This is the latest recevied weather packets stored in our database for station/object M0OAB-1. If no packets are shown the sender has not sent any weather packets the latest 10 day(s).
| Time | Temp. | Humidity | Pressure | Rain* | Wind** | Luminosity | Snow |
|---|---|---|---|---|---|---|---|
| 1777663805 | 19.44° C | 60% | 1005.1 hPa | 0 mm | - | - | - |
| 1777662965 | 19.44° C | 60% | 1005 hPa | 0 mm | - | - | - |
| 1777662245 | 20° C | 60% | 1004.8 hPa | 0 mm | - | - | - |
| 1777661884 | 20° C | 60% | 1004.9 hPa | 0 mm | - | - | - |
| 1777661525 | 20° C | 60% | 1004.8 hPa | 0 mm | - | - | - |
| 1777660445 | 20.56° C | 59% | 1004.9 hPa | 0 mm | - | - | - |
| 1777658645 | 21.67° C | 57% | 1004.8 hPa | 0 mm | - | - | - |
| 1777658285 | 21.67° C | 56% | 1004.8 hPa | 0 mm | - | - | - |
| 1777657685 | 22.22° C | 55% | 1004.7 hPa | 0 mm | - | - | - |
| 1777657325 | 22.22° C | 54% | 1004.6 hPa | 0 mm | - | - | - |
| 1777656844 | 22.22° C | 53% | 1004.6 hPa | 0 mm | - | - | - |
| 1777655284 | 23.33° C | 48% | 1004.6 hPa | 0 mm | - | - | - |
| 1777654444 | 23.33° C | 45% | 1004.6 hPa | 0 mm | - | - | - |
| 1777653485 | 23.33° C | 46% | 1004.5 hPa | 0 mm | - | - | - |
| 1777652284 | 23.33° C | 46% | 1004.8 hPa | 0 mm | - | - | - |
| 1777652045 | 23.33° C | 45% | 1004.8 hPa | 0 mm | - | - | - |
| 1777651564 | 23.33° C | 44% | 1005 hPa | 0 mm | - | - | - |
| 1777649524 | 23.33° C | 40% | 1005.2 hPa | 0 mm | - | - | - |
| 1777648804 | 23.33° C | 40% | 1005.3 hPa | 0 mm | - | - | - |
| 1777648684 | 23.33° C | 39% | 1005.3 hPa | 0 mm | - | - | - |
| 1777648444 | 23.33° C | 40% | 1005.3 hPa | 0 mm | - | - | - |
| 1777647484 | 23.33° C | 39% | 1005.5 hPa | 0 mm | - | - | - |
| 1777646645 | 23.33° C | 38% | 1005.7 hPa | 0 mm | - | - | - |
| 1777646285 | 23.33° C | 37% | 1005.6 hPa | 0 mm | - | - | - |
| 1777645324 | 23.89° C | 37% | 1006 hPa | 0 mm | - | - | - |
* Rain latest hour (hover to see other rain measurements)
** Current wind speed in m/s (hover to see current wind gust speed)